EN

Hourly Weather Shanghai

Today, 16 June, Wednesday

Time Temperature Precipitation Wind Pressure Humidity
00:00 +29°C° 0 mm 4 mps 747 mmHg 83%
01:00 +28°C° 0 mm 4 mps 748 mmHg 85%
02:00 +27°C° 0 mm 4 mps 748 mmHg 87%
03:00 +27°C° 0 mm 4 mps 748 mmHg 87%
04:00 +27°C° 0 mm 4 mps 748 mmHg 87%
05:00 +27°C° 0 mm 4 mps 748 mmHg 87%
06:00 +27°C° 0 mm 4 mps 749 mmHg 83%
07:00 +28°C° 0 mm 4 mps 749 mmHg 79%
08:00 +28°C° 0 mm 4 mps 750 mmHg 76%
09:00 +29°C° 0 mm 3 mps 750 mmHg 72%
10:00 +30°C° 0 mm 3 mps 750 mmHg 68%
11:00 +30°C° 0 mm 3 mps 750 mmHg 64%
12:00 +31°C° 0 mm 3 mps 750 mmHg 62%
13:00 +31°C° 0 mm 3 mps 750 mmHg 60%
14:00 +33°C° 0 mm 3 mps 750 mmHg 58%
15:00 +31°C° 0 mm 3 mps 750 mmHg 62%
16:00 +31°C° 0 mm 3 mps 750 mmHg 65%
17:00 +30°C° 0 mm 3 mps 750 mmHg 68%
18:00 +29°C° 0 mm 3 mps 750 mmHg 71%
19:00 +28°C° 0 mm 3 mps 751 mmHg 74%
20:00 +28°C° 0 mm 3 mps 751 mmHg 77%
21:00 +27°C° 0 mm 3 mps 751 mmHg 79%
22:00 +27°C° 0 mm 3 mps 752 mmHg 80%
23:00 +27°C° 0 mm 3 mps 752 mmHg 81%

Tomorrow, 17 June, Thursday

Time Temperature Precipitation Wind Pressure Humidity
00:00 +26°C° 0 mm 3 mps 752 mmHg 81%
01:00 +26°C° 0 mm 3 mps 751 mmHg 82%
02:00 +26°C° 0 mm 3 mps 751 mmHg 82%
03:00 +26°C° 0 mm 3 mps 751 mmHg 82%
04:00 +26°C° 0 mm 3 mps 751 mmHg 83%
05:00 +26°C° 0 mm 3 mps 751 mmHg 84%
06:00 +26°C° 0 mm 3 mps 751 mmHg 82%
07:00 +26°C° 0 mm 3 mps 752 mmHg 80%
08:00 +27°C° 0 mm 3 mps 752 mmHg 78%
09:00 +27°C° 0 mm 3 mps 752 mmHg 76%
10:00 +28°C° 0 mm 3 mps 752 mmHg 74%
11:00 +29°C° 0 mm 3 mps 752 mmHg 72%
12:00 +29°C° 0 mm 3 mps 751 mmHg 71%
13:00 +29°C° 0 mm 3 mps 751 mmHg 71%
14:00 +29°C° 0 mm 3 mps 751 mmHg 71%
15:00 +29°C° 0.1 mm 3 mps 751 mmHg 72%
16:00 +29°C° 0.1 mm 3 mps 751 mmHg 73%
17:00 +29°C° 0.1 mm 3 mps 751 mmHg 73%
18:00 +28°C° 0.2 mm 3 mps 751 mmHg 76%
19:00 +27°C° 0.2 mm 3 mps 751 mmHg 79%
20:00 +27°C° 0.2 mm 3 mps 752 mmHg 81%
21:00 +27°C° 0.3 mm 3 mps 752 mmHg 82%
22:00 +27°C° 0.3 mm 2 mps 752 mmHg 84%
23:00 +26°C° 0.3 mm 2 mps 752 mmHg 85%

Day after tomorrow, 18 June, Friday

Time Temperature Precipitation Wind Pressure Humidity
00:00 +26°C° 0 mm 2 mps 751 mmHg 86%
01:00 +26°C° 0 mm 2 mps 751 mmHg 88%
02:00 +26°C° 0 mm 2 mps 750 mmHg 89%
03:00 +26°C° 0.2 mm 1 mps 750 mmHg 90%
04:00 +26°C° 0.2 mm 1 mps 750 mmHg 92%
05:00 +26°C° 0.2 mm 1 mps 750 mmHg 93%
06:00 +27°C° 0.6 mm 1 mps 750 mmHg 91%
07:00 +27°C° 0.6 mm 1 mps 750 mmHg 88%
08:00 +28°C° 0.6 mm 1 mps 750 mmHg 86%
09:00 +29°C° 0.1 mm 1 mps 750 mmHg 83%
10:00 +29°C° 0.1 mm 2 mps 750 mmHg 81%
11:00 +30°C° 0.1 mm 2 mps 750 mmHg 78%
12:00 +29°C° 0.6 mm 3 mps 750 mmHg 80%
13:00 +29°C° 0.6 mm 4 mps 750 mmHg 81%
14:00 +29°C° 0.6 mm 5 mps 750 mmHg 83%
15:00 +28°C° 0.2 mm 5 mps 750 mmHg 83%
16:00 +27°C° 0.2 mm 5 mps 750 mmHg 84%
17:00 +26°C° 0.2 mm 5 mps 750 mmHg 84%
18:00 +26°C° 0.1 mm 5 mps 751 mmHg 79%
19:00 +26°C° 0.1 mm 4 mps 751 mmHg 74%
20:00 +25°C° 0.1 mm 4 mps 752 mmHg 68%
21:00 +25°C° 0.2 mm 3 mps 752 mmHg 69%
22:00 +25°C° 0.2 mm 2 mps 752 mmHg 70%
23:00 +24°C° 0.2 mm 2 mps 752 mmHg 70%

19 June, Saturday

Time Temperature Precipitation Wind Pressure Humidity
00:00 +24°C° 0 mm 2 mps 752 mmHg 70%
01:00 +24°C° 0 mm 2 mps 751 mmHg 71%
02:00 +24°C° 0 mm 2 mps 751 mmHg 71%
03:00 +24°C° 0 mm 2 mps 751 mmHg 71%
04:00 +24°C° 0 mm 2 mps 752 mmHg 71%
05:00 +24°C° 0 mm 2 mps 752 mmHg 71%
06:00 +24°C° 0 mm 2 mps 752 mmHg 69%
07:00 +24°C° 0 mm 2 mps 752 mmHg 68%
08:00 +24°C° 0 mm 2 mps 752 mmHg 67%
09:00 +26°C° 0 mm 2 mps 752 mmHg 61%
10:00 +27°C° 0 mm 2 mps 752 mmHg 55%
11:00 +28°C° 0 mm 2 mps 752 mmHg 48%
12:00 +28°C° 0 mm 3 mps 752 mmHg 52%
13:00 +27°C° 0 mm 3 mps 751 mmHg 55%
14:00 +27°C° 0 mm 3 mps 751 mmHg 59%
15:00 +27°C° 0 mm 3 mps 751 mmHg 59%
16:00 +27°C° 0 mm 3 mps 751 mmHg 59%
17:00 +27°C° 0 mm 3 mps 751 mmHg 59%
18:00 +26°C° 0 mm 2 mps 751 mmHg 60%
19:00 +26°C° 0 mm 2 mps 751 mmHg 61%
20:00 +26°C° 0 mm 2 mps 751 mmHg 62%
21:00 +25°C° 0 mm 2 mps 751 mmHg 63%
22:00 +25°C° 0 mm 2 mps 751 mmHg 64%
23:00 +25°C° 0 mm 2 mps 751 mmHg 65%

20 June, Sunday

Time Temperature Precipitation Wind Pressure Humidity
00:00 +25°C° 0 mm 2 mps 751 mmHg 64%
01:00 +25°C° 0 mm 2 mps 751 mmHg 64%
02:00 +24°C° 0 mm 2 mps 750 mmHg 64%
03:00 +24°C° 0 mm 1 mps 750 mmHg 63%
04:00 +24°C° 0 mm 1 mps 750 mmHg 62%
05:00 +24°C° 0 mm 1 mps 751 mmHg 62%
06:00 +24°C° 0 mm 1 mps 751 mmHg 62%
07:00 +24°C° 0 mm 1 mps 751 mmHg 62%
08:00 +24°C° 0 mm 1 mps 752 mmHg 62%
09:00 +24°C° 0 mm 2 mps 752 mmHg 62%
10:00 +24°C° 0 mm 2 mps 752 mmHg 63%
11:00 +24°C° 0 mm 2 mps 752 mmHg 63%
12:00 +25°C° 0 mm 2 mps 751 mmHg 62%
13:00 +25°C° 0 mm 2 mps 751 mmHg 61%
14:00 +25°C° 0 mm 1 mps 751 mmHg 60%
15:00 +25°C° 0 mm 1 mps 751 mmHg 59%
16:00 +25°C° 0 mm 1 mps 751 mmHg 58%
17:00 +25°C° 0 mm 1 mps 751 mmHg 58%
18:00 +25°C° 0 mm 1 mps 751 mmHg 59%
19:00 +25°C° 0 mm 1 mps 751 mmHg 61%
20:00 +24°C° 0 mm 1 mps 751 mmHg 62%
21:00 +24°C° 0 mm 1 mps 752 mmHg 64%
22:00 +24°C° 0 mm 1 mps 752 mmHg 65%
23:00 +24°C° 0 mm 1 mps 752 mmHg 67%

21 June, Monday

Time Temperature Precipitation Wind Pressure Humidity
00:00 +24°C° 0 mm 1 mps 751 mmHg 68%
01:00 +23°C° 0 mm 1 mps 751 mmHg 69%
02:00 +23°C° 0 mm 1 mps 751 mmHg 70%
03:00 +23°C° 0 mm 2 mps 751 mmHg 69%
04:00 +22°C° 0 mm 3 mps 751 mmHg 67%
05:00 +22°C° 0 mm 3 mps 751 mmHg 65%
06:00 +22°C° 0 mm 3 mps 752 mmHg 65%
07:00 +24°C° 0 mm 3 mps 752 mmHg 65%
08:00 +23°C° 0 mm 4 mps 752 mmHg 64%
09:00 +23°C° 0 mm 4 mps 752 mmHg 65%
10:00 +23°C° 0 mm 4 mps 752 mmHg 66%
11:00 +23°C° 0 mm 4 mps 752 mmHg 67%
12:00 +23°C° 0 mm 4 mps 752 mmHg 68%
13:00 +23°C° 0 mm 4 mps 752 mmHg 68%
14:00 +23°C° 0 mm 4 mps 752 mmHg 69%
15:00 +23°C° 0.1 mm 4 mps 752 mmHg 69%
16:00 +23°C° 0.1 mm 4 mps 752 mmHg 69%
17:00 +22°C° 0.1 mm 5 mps 752 mmHg 69%
18:00 +22°C° 0.1 mm 5 mps 752 mmHg 68%
19:00 +22°C° 0.1 mm 5 mps 752 mmHg 66%
20:00 +22°C° 0.1 mm 5 mps 752 mmHg 64%
21:00 +22°C° 0 mm 6 mps 752 mmHg 64%
22:00 +22°C° 0 mm 6 mps 753 mmHg 63%
23:00 +22°C° 0 mm 6 mps 753 mmHg 62%
Show more